Weather in Sukkur

Pakistan     27°43′57″N   68°50′04″E
temp.,
°C
wind,
m/s
gust,
m/s
humid.,
%
clouds,
%
prec.,
mm/h
press.,
hPa
HPBL,
m
10 april, sat
sat1023:00+30ese3480 0.0 100849
02:00+28ese34103 0.0 100855
05:00+27e46110 0.0 100888
08:00+30ese45104 0.0 1011242
11:00+37sse4480 0.0 10111285
14:00+40sw1252 0.0 10084996
17:00+39ssw0254 0.0 10075407
20:00+33s1170 0.0 100822
11 april, sun
sun1123:00+31wsw2284 0.0 100936
02:00+29ssw23100 0.0 100837
05:00+27ssw22110 0.0 100829
08:00+32ssw2280 0.0 1011162
11:00+39ssw3360 0.0 10101561
14:00+41sse3240 0.0 10075289
17:00+41se4443 0.0 10065320
20:00+36sse4660 0.0 1007112
12 april, mon
mon1223:00+32ssw41085 0.0 1008173
02:00+30sw49120 0.0 1008145
05:00+29ssw49140 0.0 1007134
08:00+33s02110 0.0 1010224
11:00+40ssw3560 0.0 10092138
14:00+43ssw4254 0.0 10065770
17:00+42s44462 0.0 10055785
20:00+36s5962 0.0 1006216
13 april, tue
tue1323:00+33ssw6141324 0.0 1007288
02:00+32ssw6131230 0.0 1007307
05:00+30ssw5111322 0.0 1007188
08:00+34sw48124 0.0 1008257
11:00+42ssw5560 0.0 10082928
14:00+43s7540 0.0 10055336
17:00+42sse7550 0.0 10044926
20:00+37sse71380 0.0 1005441
14 april, wed
wed1423:00+33ssw714260 0.0 1007402
02:00+30s511419 0.0 1006283
05:00+28s48451 0.0 1006166
08:00+30sse68322 0.0 1008333
11:00+37sse551420 0.0 10081238
14:00+40sse4480 0.0 10052221
17:00+40sse339100 0.0 10032746
20:00+35sse471634 0.0 1004228